| time (UTC) | temp F | wind direction | speed MPH | gust MPH | rain 1hr in | rain 24hr in | rain mn in | humidity % | barometer mb |
| 20260510191024 | 54 | 19 | 1.0 | 7.0 | 0.00 | 0.00 | 0.00 | 61 | 1015.2 |
| 20260510190036 | 54 | 27 | 1.0 | 7.0 | 0.00 | 0.00 | 0.00 | 60 | 1015.3 |
| 20260510185032 | 54 | 42 | 1.0 | 7.0 | 0.00 | 0.00 | 0.00 | 61 | 1015.3 |
| 20260510184024 | 54 | 32 | 3.0 | 12.0 | 0.00 | 0.00 | 0.00 | 61 | 1015.5 |
| 20260510183036 | 55 | 26 | 3.0 | 10.0 | 0.00 | 0.00 | 0.00 | 60 | 1015.4 |
| 20260510182052 | 55 | 26 | 3.0 | 10.0 | 0.00 | 0.00 | 0.00 | 60 | 1015.5 |
| 20260510181025 | 55 | 12 | 2.0 | 12.0 | 0.00 | 0.00 | 0.00 | 59 | 1015.5 |
| 20260510180036 | 55 | 30 | 2.0 | 10.0 | 0.00 | 0.00 | 0.00 | 60 | 1015.7 |
| 20260510175032 | 55 | 45 | 2.0 | 7.0 | 0.00 | 0.00 | 0.00 | 60 | 1015.7 |
| 20260510174024 | 56 | 34 | 4.0 | 17.0 | 0.00 | 0.00 | 0.00 | 60 | 1015.8 |
| 20260510173037 | 56 | 25 | 4.0 | 17.0 | 0.00 | 0.00 | 0.00 | 59 | 1016.0 |
| 20260510172031 | 56 | 29 | 5.0 | 17.0 | 0.00 | 0.00 | 0.00 | 59 | 1015.9 |
| 20260510171025 | 56 | 27 | 2.0 | 10.0 | 0.00 | 0.00 | 0.00 | 59 | 1016.0 |
| 20260510170036 | 56 | 78 | 1.0 | 12.0 | 0.00 | 0.00 | 0.00 | 60 | 1016.1 |
| 20260510165051 | 56 | 36 | 2.0 | 12.0 | 0.00 | 0.00 | 0.00 | 61 | 1016.2 |
| 20260510164025 | 55 | 44 | 2.0 | 7.0 | 0.00 | 0.00 | 0.00 | 62 | 1016.4 |
| 20260510163117 | 55 | 39 | 1.0 | 7.0 | 0.00 | 0.00 | 0.00 | 62 | 1016.5 |
| 20260510162032 | 55 | 16 | 3.0 | 12.0 | 0.00 | 0.00 | 0.00 | 62 | 1016.5 |
| 20260510161025 | 55 | 23 | 5.0 | 15.0 | 0.00 | 0.00 | 0.00 | 63 | 1016.6 |
| 20260510160036 | 55 | 26 | 5.0 | 15.0 | 0.00 | 0.00 | 0.00 | 64 | 1016.8 |
| 20260510155031 | 55 | 22 | 5.0 | 15.0 | 0.00 | 0.00 | 0.00 | 64 | 1016.9 |
| 20260510154026 | 54 | 24 | 4.0 | 12.0 | 0.00 | 0.00 | 0.00 | 64 | 1016.9 |
| 20260510153116 | 54 | 24 | 3.0 | 10.0 | 0.00 | 0.00 | 0.00 | 65 | 1017.1 |
| 20260510152031 | 54 | 21 | 4.0 | 15.0 | 0.00 | 0.00 | 0.00 | 66 | 1017.3 |
| 20260510151037 | 54 | 21 | 3.0 | 10.0 | 0.00 | 0.00 | 0.00 | 66 | 1017.4 |
| 20260510150052 | 54 | 35 | 2.0 | 10.0 | 0.00 | 0.00 | 0.00 | 66 | 1017.4 |
| 20260510145046 | 54 | 31 | 4.0 | 15.0 | 0.00 | 0.00 | 0.00 | 66 | 1017.5 |
| 20260510144037 | 55 | 31 | 6.0 | 12.0 | 0.00 | 0.00 | 0.00 | 66 | 1017.6 |
| 20260510143037 | 55 | 30 | 4.0 | 15.0 | 0.00 | 0.00 | 0.00 | 67 | 1017.7 |
| 20260510142032 | 55 | 18 | 3.0 | 15.0 | 0.00 | 0.00 | 0.00 | 68 | 1017.8 |
| 20260510141025 | 55 | 17 | 4.0 | 15.0 | 0.00 | 0.00 | 0.00 | 68 | 1017.8 |
| 20260510140034 | 55 | 24 | 4.0 | 15.0 | 0.00 | 0.00 | 0.00 | 69 | 1017.8 |
| 20260510135025 | 55 | 22 | 6.0 | 15.0 | 0.00 | 0.00 | 0.00 | 68 | 1017.8 |
| 20260510134026 | 55 | 15 | 3.0 | 12.0 | 0.00 | 0.00 | 0.00 | 68 | 1017.7 |
| 20260510133036 | 55 | 57 | 2.0 | 12.0 | 0.00 | 0.00 | 0.00 | 69 | 1017.9 |
| 20260510132032 | 55 | 34 | 2.0 | 7.0 | 0.00 | 0.00 | 0.00 | 69 | 1017.9 |
| 20260510131027 | 55 | 30 | 2.0 | 10.0 | 0.00 | 0.00 | 0.00 | 69 | 1017.9 |
| 20260510130025 | 56 | 16 | 3.0 | 15.0 | 0.00 | 0.00 | 0.00 | 68 | 1017.9 |
| 20260510125036 | 56 | 26 | 3.0 | 12.0 | 0.00 | 0.00 | 0.00 | 68 | 1018.2 |
| 20260510124112 | 56 | 26 | 3.0 | 10.0 | 0.00 | 0.00 | 0.00 | 68 | 1018.3 |
| 20260510123024 | 56 | 31 | 2.0 | 10.0 | 0.00 | 0.00 | 0.00 | 67 | 1018.3 |
| 20260510122036 | 55 | 28 | 4.0 | 12.0 | 0.00 | 0.00 | 0.00 | 67 | 1018.2 |
| 20260510121032 | 55 | 42 | 2.0 | 12.0 | 0.00 | 0.00 | 0.00 | 68 | 1018.4 |
| 20260510120025 | 56 | 25 | 5.0 | 12.0 | 0.00 | 0.00 | 0.00 | 68 | 1018.4 |
| 20260510115057 | 56 | 29 | 3.0 | 12.0 | 0.00 | 0.00 | 0.00 | 68 | 1018.5 |
| 20260510114031 | 57 | 24 | 8.0 | 20.0 | 0.00 | 0.00 | 0.00 | 67 | 1018.5 |
| 20260510113024 | 57 | 22 | 4.0 | 17.0 | 0.00 | 0.00 | 0.00 | 65 | 1018.7 |
| 20260510112056 | 57 | 49 | 5.0 | 20.0 | 0.00 | 0.00 | 0.00 | 66 | 1018.8 |
| 20260510111031 | 57 | 28 | 6.0 | 20.0 | 0.00 | 0.00 | 0.00 | 66 | 1018.8 |
| 20260510110031 | 58 | 41 | 5.0 | 17.0 | 0.00 | 0.00 | 0.00 | 65 | 1019.0 |
| 20260510105024 | 58 | 29 | 4.0 | 12.0 | 0.00 | 0.00 | 0.00 | 64 | 1018.9 |
| 20260510104056 | 57 | 38 | 3.0 | 17.0 | 0.00 | 0.00 | 0.00 | 65 | 1019.0 |
| 20260510103031 | 56 | 26 | 3.0 | 12.0 | 0.00 | 0.00 | 0.00 | 65 | 1018.9 |
| 20260510102023 | 55 | 39 | 3.0 | 12.0 | 0.00 | 0.00 | 0.00 | 67 | 1019.0 |
| 20260510101056 | 55 | 35 | 4.0 | 17.0 | 0.00 | 0.00 | 0.00 | 69 | 1019.0 |
| 20260510100031 | 54 | 39 | 3.0 | 10.0 | 0.00 | 0.00 | 0.00 | 70 | 1019.0 |
| 20260510095025 | 54 | 27 | 4.0 | 10.0 | 0.00 | 0.00 | 0.00 | 71 | 1019.1 |
| 20260510094036 | 54 | 21 | 3.0 | 12.0 | 0.00 | 0.00 | 0.00 | 72 | 1019.2 |
| 20260510093051 | 54 | 30 | 4.0 | 17.0 | 0.00 | 0.00 | 0.00 | 72 | 1019.2 |
| 20260510092023 | 54 | 17 | 6.0 | 22.0 | 0.00 | 0.00 | 0.00 | 72 | 1019.3 |
| 20260510091037 | 53 | 22 | 3.0 | 12.0 | 0.00 | 0.00 | 0.00 | 72 | 1019.3 |
| 20260510090031 | 53 | 39 | 2.0 | 7.0 | 0.00 | 0.00 | 0.00 | 73 | 1019.5 |
| 20260510085025 | 53 | 31 | 4.0 | 15.0 | 0.00 | 0.00 | 0.00 | 74 | 1019.5 |
| 20260510084036 | 53 | 26 | 2.0 | 10.0 | 0.00 | 0.00 | 0.00 | 75 | 1019.7 |
| 20260510083031 | 53 | 25 | 4.0 | 17.0 | 0.00 | 0.00 | 0.00 | 75 | 1019.6 |
| 20260510082024 | 52 | 26 | 3.0 | 10.0 | 0.00 | 0.00 | 0.00 | 75 | 1019.7 |
| 20260510081036 | 52 | 29 | 2.0 | 15.0 | 0.00 | 0.00 | 0.00 | 76 | 1019.6 |
| 20260510080050 | 52 | 27 | 5.0 | 20.0 | 0.00 | 0.00 | 0.00 | 77 | 1019.6 |
| 20260510075023 | 52 | 25 | 4.0 | 12.0 | 0.00 | 0.00 | 0.00 | 77 | 1019.7 |
| 20260510074024 | 52 | 48 | 2.0 | 7.0 | 0.00 | 0.00 | 0.00 | 78 | 1019.7 |
| 20260510073035 | 51 | 23 | 5.0 | 15.0 | 0.00 | 0.00 | 0.00 | 78 | 1019.7 |
| 20260510072031 | 51 | 33 | 2.0 | 10.0 | 0.00 | 0.00 | 0.00 | 79 | 1019.6 |
| 20260510071023 | 51 | 47 | 1.0 | 10.0 | 0.00 | 0.00 | 0.00 | 79 | 1019.6 |
| 20260510070036 | 51 | 60 | 2.0 | 10.0 | 0.00 | 0.00 | 0.00 | 80 | 1019.5 |
| 20260510065031 | 50 | 23 | 2.0 | 12.0 | 0.00 | 0.00 | 0.00 | 80 | 1019.6 |
| 20260510064025 | 50 | 27 | 2.0 | 10.0 | 0.00 | 0.00 | 0.00 | 82 | 1019.6 |
| 20260510063035 | 50 | 44 | 3.0 | 10.0 | 0.00 | 0.00 | 0.00 | 82 | 1019.5 |
| 20260510062035 | 50 | 32 | 2.0 | 12.0 | 0.00 | 0.00 | 0.00 | 83 | 1019.4 |
| 20260510061032 | 50 | 28 | 4.0 | 10.0 | 0.00 | 0.00 | 0.00 | 83 | 1019.4 |
| 20260510060023 | 50 | 27 | 5.0 | 15.0 | 0.00 | 0.00 | 0.00 | 83 | 1019.3 |
| 20260510055035 | 50 | 31 | 3.0 | 10.0 | 0.00 | 0.00 | 0.00 | 84 | 1019.2 |
| 20260510054031 | 50 | 23 | 4.0 | 15.0 | 0.00 | 0.00 | 0.00 | 84 | 1019.3 |
| 20260510053032 | 50 | 29 | 3.0 | 10.0 | 0.00 | 0.00 | 0.00 | 84 | 1019.4 |
| 20260510052027 | 49 | 21 | 5.0 | 12.0 | 0.00 | 0.00 | 0.00 | 84 | 1019.3 |
| 20260510051023 | 49 | 16 | 3.0 | 12.0 | 0.00 | 0.00 | 0.00 | 84 | 1019.2 |
| 20260510050023 | 49 | 25 | 2.0 | 12.0 | 0.00 | 0.00 | 0.00 | 84 | 1019.3 |
| 20260510045035 | 49 | 30 | 2.0 | 12.0 | 0.00 | 0.00 | 0.00 | 85 | 1019.2 |
| 20260510044031 | 49 | 29 | 2.0 | 7.0 | 0.00 | 0.00 | 0.00 | 85 | 1019.3 |
| 20260510043034 | 49 | 29 | 1.0 | 5.0 | 0.00 | 0.00 | 0.00 | 86 | 1019.3 |
| 20260510042031 | 49 | 24 | 3.0 | 10.0 | 0.00 | 0.00 | 0.00 | 86 | 1019.4 |
| 20260510041024 | 49 | 31 | 4.0 | 12.0 | 0.00 | 0.00 | 0.00 | 86 | 1019.3 |
| 20260510040043 | 49 | 24 | 4.0 | 12.0 | 0.00 | 0.00 | 0.00 | 86 | 1019.5 |
| 20260510035035 | 49 | 27 | 2.0 | 10.0 | 0.00 | 0.00 | 0.00 | 86 | 1019.5 |
| 20260510034035 | 49 | 16 | 2.0 | 10.0 | 0.00 | 0.00 | 0.00 | 86 | 1019.5 |
| 20260510033051 | 49 | 26 | 1.0 | 7.0 | 0.00 | 0.00 | 0.00 | 86 | 1019.7 |
| 20260510032024 | 49 | 24 | 4.0 | 12.0 | 0.00 | 0.00 | 0.00 | 86 | 1019.8 |
| 20260510031035 | 49 | 23 | 4.0 | 15.0 | 0.00 | 0.00 | 0.00 | 86 | 1019.8 |
| 20260510030050 | 49 | 25 | 2.0 | 7.0 | 0.00 | 0.00 | 0.00 | 86 | 1019.6 |
| 20260510025045 | 50 | 11 | 3.0 | 10.0 | 0.00 | 0.00 | 0.00 | 86 | 1019.6 |
| 20260510024036 | 50 | 23 | 2.0 | 10.0 | 0.00 | 0.00 | 0.00 | 86 | 1019.7 |
| 20260510023051 | 50 | 27 | 4.0 | 10.0 | 0.00 | 0.00 | 0.00 | 85 | 1019.8 |
| 20260510022027 | 50 | 18 | 4.0 | 12.0 | 0.00 | 0.00 | 0.00 | 85 | 1019.7 |
| 20260510021023 | 50 | 29 | 5.0 | 12.0 | 0.00 | 0.00 | 0.00 | 85 | 1019.7 |
| 20260510020051 | 51 | 20 | 5.0 | 15.0 | 0.00 | 0.00 | 0.00 | 84 | 1019.5 |
| 20260510015031 | 51 | 18 | 4.0 | 12.0 | 0.00 | 0.00 | 0.00 | 83 | 1019.6 |
| 20260510014043 | 51 | 31 | 3.0 | 10.0 | 0.00 | 0.00 | 0.00 | 81 | 1019.7 |
| 20260510013035 | 51 | 26 | 4.0 | 12.0 | 0.00 | 0.00 | 0.00 | 79 | 1019.7 |
| 20260510012035 | 52 | 4 | 2.0 | 7.0 | 0.00 | 0.00 | 0.00 | 77 | 1019.7 |
| 20260510011030 | 52 | 24 | 3.0 | 15.0 | 0.00 | 0.00 | 0.00 | 74 | 1019.6 |
| 20260510010026 | 53 | 25 | 3.0 | 10.0 | 0.00 | 0.00 | 0.00 | 71 | 1019.6 |
| 20260510005035 | 53 | 17 | 2.0 | 12.0 | 0.00 | 0.00 | 0.00 | 69 | 1019.7 |
| 20260510004030 | 54 | 31 | 3.0 | 12.0 | 0.00 | 0.00 | 0.00 | 68 | 1019.5 |
| 20260510003104 | 54 | 36 | 3.0 | 10.0 | 0.00 | 0.00 | 0.00 | 68 | 1019.5 |
| 20260510002035 | 54 | 29 | 2.0 | 7.0 | 0.00 | 0.00 | 0.00 | 66 | 1019.6 |
| 20260510001031 | 55 | 26 | 2.0 | 12.0 | 0.00 | 0.00 | 0.00 | 64 | 1019.7 |
| 20260510000022 | 55 | 27 | 2.0 | 10.0 | 0.00 | 0.00 | 0.00 | 63 | 1019.6 |
| 20260509235055 | 55 | 34 | 2.0 | 7.0 | 0.00 | 0.00 | 0.00 | 63 | 1019.5 |
| 20260509234110 | 55 | 15 | 1.0 | 7.0 | 0.00 | 0.00 | 0.00 | 62 | 1019.5 |
| 20260509233045 | 55 | 16 | 2.0 | 7.0 | 0.00 | 0.00 | 0.00 | 61 | 1019.3 |
| 20260509232055 | 55 | 25 | 2.0 | 7.0 | 0.00 | 0.00 | 0.00 | 61 | 1019.5 |
| 20260509231031 | 55 | 25 | 2.0 | 7.0 | 0.00 | 0.00 | 0.00 | 61 | 1019.4 |
| 20260509230050 | 55 | 30 | 0.0 | 5.0 | 0.00 | 0.00 | 0.00 | 61 | 1019.5 |
| 20260509225024 | 55 | 22 | 1.0 | 5.0 | 0.00 | 0.00 | 0.00 | 61 | 1019.4 |
| 20260509224035 | 55 | 6 | 1.0 | 5.0 | 0.00 | 0.00 | 0.00 | 61 | 1019.5 |
| 20260509223032 | 55 | 22 | 0.0 | 2.0 | 0.00 | 0.00 | 0.00 | 60 | 1019.4 |
| 20260509222035 | 55 | 15 | 0.0 | 2.0 | 0.00 | 0.00 | 0.00 | 59 | 1019.3 |
| 20260509221023 | 55 | 20 | 0.0 | 7.0 | 0.00 | 0.00 | 0.00 | 58 | 1019.4 |
| 20260509220035 | 55 | 26 | 0.0 | 2.0 | 0.00 | 0.00 | 0.00 | 57 | 1019.3 |
| 20260509215030 | 56 | 18 | 0.0 | 2.0 | 0.00 | 0.00 | 0.00 | 55 | 1019.4 |
| 20260509214023 | 57 | 6 | 0.0 | 2.0 | 0.00 | 0.00 | 0.00 | 55 | 1019.6 |
| 20260509213034 | 57 | 17 | 0.0 | 2.0 | 0.00 | 0.00 | 0.00 | 53 | 1019.6 |
| 20260509212030 | 58 | 13 | 0.0 | 2.0 | 0.00 | 0.00 | 0.00 | 52 | 1019.2 |
| 20260509211035 | 58 | 32 | 1.0 | 7.0 | 0.00 | 0.00 | 0.00 | 51 | 1019.1 |
| 20260509210035 | 58 | 59 | 1.0 | 5.0 | 0.00 | 0.00 | 0.00 | 50 | 1019.0 |
| 20260509205030 | 59 | 54 | 1.0 | 7.0 | 0.00 | 0.00 | 0.00 | 49 | 1019.0 |
| 20260509204023 | 59 | 49 | 1.0 | 5.0 | 0.00 | 0.00 | 0.00 | 49 | 1019.0 |
| 20260509203034 | 59 | 37 | 1.0 | 5.0 | 0.00 | 0.00 | 0.00 | 49 | 1019.0 |
| 20260509202031 | 59 | 66 | 0.0 | 5.0 | 0.00 | 0.00 | 0.00 | 49 | 1018.9 |
| 20260509201022 | 60 | 64 | 0.0 | 5.0 | 0.00 | 0.00 | 0.00 | 48 | 1018.7 |
| 20260509200023 | 60 | 107 | 1.0 | 5.0 | 0.00 | 0.00 | 0.00 | 48 | 1018.6 |
| 20260509195034 | 61 | 83 | 0.0 | 2.0 | 0.00 | 0.00 | 0.00 | 48 | 1018.7 |
| 20260509194029 | 61 | 83 | 1.0 | 5.0 | 0.00 | 0.00 | 0.00 | 48 | 1018.6 |
| 20260509193022 | 61 | 75 | 1.0 | 5.0 | 0.00 | 0.00 | 0.00 | 48 | 1018.5 |
| 20260509192023 | 62 | 71 | 2.0 | 7.0 | 0.00 | 0.00 | 0.00 | 47 | 1018.3 |